Showing default

LEMUR 2 LIA-MARTIN, 63248

Orbit data source: Space-Track

LEMUR 2 LIA-MARTIN, 63248 is a payload satellite owned by Spire (US) in SSO that was launched on Sat, 15 Mar 2025 UTC via an FALCON 9 launch vehicle from the Air Force Western Test Range (AFWTR). Payload-class satellites include a variety of spacecraft equipped with specific instruments for various scientific and technological missions. These include communications satellites like Starlink; space stations such as the ISS; scientific satellites like the Hubble; Earth observation satellites from companies like Planet Labs, Umbra, and HawkEye 360; GPS; miniature CubeSats for education and research; and military/defense satellites.

Loading next visibility...
Identifier
63248, 2025-052AQ
Orbit
SSO
Country
Flag of USUS
Related business
Manufacturer
Spire/Glasgow
Mission
Operational Commercial Com/MetRO
Bus & Motor
CUBESAT 6U, Unknown motor
Mass
10 kg wet, 10 kg dry
Launch date (UTC)
2025-03-15 (1 year ago)
Launch vehicle
FALCON 9
Launch site
Air Force Western Test Range (AFWTR)
Object type
Payload
Rocket body
Debris
Shape & HBR
Box, 0.2 m
Radar Cross Section
0.080 m², Medium (>0.1 m² and < 1m²)

Expand to show TLE details & history
Last TLE update: 13 hours ago

TLE from 13 hours ago
0 LEMUR 2 LIA-MARTIN
1 63248U 25052AQ  26166.60505231  .00003282  00000-0  28436-3 0  9991
2 63248  97.6905  59.0558 0002811 158.2890 201.8452 14.97795438 68449
Epoch: 2026-06-15T14:31Z
TLE epoch observation values (Epoch: 2026-06-15T14:31:16.519Z)
Latitude
-0.00002°
Longitude
-62.65207°
Altitude
578.576 km
Speed
7.57 km/s
True Right ascension
03h 56m 13s
True Declination
0° 00' 00"
Sunlit
Object was in daylight at epoch
Visualization orbit readout
Latitude
Unknown
Longitude
Unknown
Altitude
Unknown
Speed
Unknown
Apparent Right ascension
Unknown
Apparent Declination
Unknown
Sunlit
N/A
Visualization observer readout
Local Sidereal Time
13:46:27
Azimuth
Unknown
Elevation
Unknown
Doppler factor
Unknown
Orbital elements
Apogee altitude
572.671 km
Perigee altitude
568.764 km
Semi-major axis
6,948.854 km
Eccentricity
0.00028
Inclination
97.6905°
RAAN
59.0558°
Arg. of periapsis
158.289°
True anomaly
201.83322°
Mean anomaly
201.8452°
Eccentric anomaly
201.83921°
Mean motion
3.74691 °/min
Orbital period
96.08 mins
BSTAR
0.00028436
Loading maneuver chart data...
Computing Atmospheric mass density...
Loading historical data...
Loading historical data...
Loading historical data...
Loading historical data...
Loading historical data...
Loading historical data...
Loading historical data...

Documentation

Showing up to 5 results
|